Time,TemperatureF,DewpointF,PressureIn,WindDirection,WindDirectionDegrees,WindSpeedMPH,WindSpeedGustMPH,Humidity,HourlyPrecipIn,Conditions,Clouds,dailyrainin,SoftwareType,DateUTC
2013-07-06 00:02:00,75.0,72.0,29.96,West,263,0.0,0.0,89,0.00,,,-99.99,,2013-07-06 04:02:00,
2013-07-06 00:12:00,75.0,72.0,29.96,West,263,0.0,0.0,89,0.00,,,-99.99,,2013-07-06 04:12:00,
2013-07-06 00:22:00,74.0,71.0,29.95,West,263,0.0,0.0,91,0.00,,,-99.99,,2013-07-06 04:22:00,
2013-07-06 00:33:00,74.0,71.0,29.95,West,263,0.0,0.0,91,0.00,,,-99.99,,2013-07-06 04:33:00,
2013-07-06 00:43:00,74.0,71.0,29.95,West,263,0.0,0.0,91,0.00,,,-99.99,,2013-07-06 04:43:00,
2013-07-06 00:53:00,73.0,71.0,29.95,West,262,0.0,0.0,92,0.00,,,-99.99,,2013-07-06 04:53:00,
2013-07-06 01:02:00,73.0,71.0,29.95,West,262,0.0,0.0,93,0.00,,,-99.99,,2013-07-06 05:02:00,
2013-07-06 01:12:00,72.0,70.0,29.95,West,262,0.0,0.0,94,0.00,,,-99.99,,2013-07-06 05:12:00,
2013-07-06 01:22:00,72.0,70.0,29.95,West,262,0.0,0.0,94,0.00,,,-99.99,,2013-07-06 05:22:00,
2013-07-06 01:33:00,71.0,69.0,29.96,West,262,0.0,0.0,95,0.00,,,-99.99,,2013-07-06 05:33:00,
2013-07-06 01:43:00,71.0,69.0,29.96,West,263,0.0,0.0,95,0.00,,,-99.99,,2013-07-06 05:43:00,
2013-07-06 01:53:00,71.0,69.0,29.96,West,263,0.0,0.0,95,0.00,,,-99.99,,2013-07-06 05:53:00,
2013-07-06 02:02:00,71.0,70.0,29.96,West,262,0.0,0.0,96,0.00,,,-99.99,,2013-07-06 06:02:00,
2013-07-06 02:12:00,71.0,70.0,29.96,West,262,0.0,0.0,96,0.00,,,-99.99,,2013-07-06 06:12:00,
2013-07-06 02:22:00,71.0,70.0,29.96,West,263,0.0,0.0,96,0.00,,,-99.99,,2013-07-06 06:22:00,
2013-07-06 02:34:00,71.0,70.0,29.96,West,263,0.0,0.0,96,0.00,,,-99.99,,2013-07-06 06:34:00,
2013-07-06 02:43:00,71.0,70.0,29.96,West,263,0.0,0.0,96,0.00,,,-99.99,,2013-07-06 06:43:00,
2013-07-06 02:53:00,71.0,70.0,29.96,West,263,0.0,0.0,96,0.00,,,-99.99,,2013-07-06 06:53:00,
2013-07-06 03:02:00,71.0,70.0,29.96,West,262,0.0,0.0,96,0.00,,,-99.99,,2013-07-06 07:02:00,
2013-07-06 03:12:00,71.0,70.0,29.95,West,262,0.0,0.0,96,0.00,,,-99.99,,2013-07-06 07:12:00,
2013-07-06 03:22:00,71.0,70.0,29.96,West,261,0.0,0.0,96,0.00,,,-99.99,,2013-07-06 07:22:00,
2013-07-06 03:33:00,71.0,70.0,29.96,West,261,0.0,0.0,96,0.00,,,-99.99,,2013-07-06 07:33:00,
2013-07-06 03:44:00,70.0,69.0,29.95,West,261,0.0,0.0,96,0.00,,,-99.99,,2013-07-06 07:44:00,
2013-07-06 03:52:00,70.0,69.0,29.95,West,261,0.0,0.0,96,0.00,,,-99.99,,2013-07-06 07:52:00,
2013-07-06 04:02:00,70.0,69.0,29.95,West,261,0.0,0.0,97,0.00,,,-99.99,,2013-07-06 08:02:00,
2013-07-06 04:12:00,70.0,69.0,29.95,West,261,0.0,0.0,97,0.00,,,-99.99,,2013-07-06 08:12:00,
2013-07-06 04:22:00,70.0,69.0,29.95,West,261,0.0,0.0,97,0.00,,,-99.99,,2013-07-06 08:22:00,
2013-07-06 04:34:00,70.0,69.0,29.95,West,261,0.0,0.0,97,0.00,,,-99.99,,2013-07-06 08:34:00,
2013-07-06 04:54:00,69.0,68.0,29.96,West,261,0.0,0.0,97,0.00,,,-99.99,,2013-07-06 08:54:00,
2013-07-06 05:02:00,69.0,68.0,29.96,West,261,0.0,0.0,97,0.00,,,-99.99,,2013-07-06 09:02:00,
2013-07-06 05:11:00,69.0,68.0,29.96,West,261,0.0,0.0,97,0.00,,,-99.99,,2013-07-06 09:11:00,
2013-07-06 05:22:00,69.0,68.0,29.96,West,259,0.0,0.0,97,0.00,,,-99.99,,2013-07-06 09:22:00,
2013-07-06 05:33:00,69.0,68.0,29.96,WSW,257,0.0,0.0,97,0.00,,,-99.99,,2013-07-06 09:33:00,
2013-07-06 05:43:00,69.0,68.0,29.96,WSW,257,0.0,0.0,97,0.00,,,-99.99,,2013-07-06 09:43:00,
2013-07-06 05:52:00,69.0,68.0,29.96,SSW,197,0.0,0.0,97,0.00,,,-99.99,,2013-07-06 09:52:00,
2013-07-06 06:02:00,69.0,68.0,29.96,SSW,197,0.0,0.0,97,0.00,,,-99.99,,2013-07-06 10:02:00,
2013-07-06 06:11:00,69.0,68.0,29.96,SSW,199,0.0,0.0,98,0.00,,,-99.99,,2013-07-06 10:11:00,
2013-07-06 06:33:00,70.0,69.0,29.96,SSW,199,0.0,0.0,98,0.00,,,-99.99,,2013-07-06 10:33:00,
2013-07-06 06:42:00,71.0,70.0,29.96,SSW,199,0.0,0.0,97,0.00,,,-99.99,,2013-07-06 10:42:00,
2013-07-06 06:53:00,72.0,71.0,29.96,SSW,199,0.0,0.0,97,0.00,,,-99.99,,2013-07-06 10:53:00,
2013-07-06 07:01:00,73.0,71.0,29.96,SSW,199,0.0,0.0,95,0.00,,,-99.99,,2013-07-06 11:01:00,
2013-07-06 07:11:00,73.0,71.0,29.96,SSW,199,0.0,0.0,95,0.00,,,-99.99,,2013-07-06 11:11:00,
2013-07-06 11:33:00,86.0,71.0,29.93,NNW,345,1.0,10.0,62,0.00,,,-99.99,,2013-07-06 15:33:00,
2013-07-06 12:56:00,88.0,72.0,29.91,WNW,296,7.0,12.0,59,0.00,,,-99.99,,2013-07-06 16:56:00,
2013-07-06 13:17:00,88.0,71.0,29.91,NW,320,6.0,17.0,58,0.00,,,-99.99,,2013-07-06 17:17:00,
2013-07-06 13:44:00,88.0,73.0,29.91,WNW,284,3.0,11.0,61,0.00,,,-99.99,,2013-07-06 17:44:00,
2013-07-06 14:27:00,87.0,72.0,29.90,NW,312,0.0,11.0,62,0.00,,,-99.99,,2013-07-06 18:27:00,
2013-07-06 16:00:00,86.0,71.0,29.88,WNW,287,4.0,11.0,62,0.00,,,-99.99,,2013-07-06 20:00:00,
2013-07-06 18:56:00,85.0,68.0,29.86,NW,311,3.0,7.0,57,0.00,,,-99.99,,2013-07-06 22:56:00,
2013-07-06 19:03:00,85.0,68.0,29.86,NW,321,3.0,11.0,57,0.00,,,-99.99,,2013-07-06 23:03:00,
2013-07-06 19:25:00,84.0,68.0,29.85,NW,305,0.0,7.0,59,0.00,,,-99.99,,2013-07-06 23:25:00,
2013-07-06 19:33:00,84.0,69.0,29.85,West,274,0.0,6.0,60,0.00,,,-99.99,,2013-07-06 23:33:00,
2013-07-06 19:48:00,83.0,68.0,29.85,WNW,299,0.0,6.0,61,0.00,,,-99.99,,2013-07-06 23:48:00,
2013-07-06 20:33:00,79.0,69.0,29.85,North,7,0.0,4.0,72,0.00,,,-99.99,,2013-07-07 00:33:00,
2013-07-06 20:56:00,78.0,69.0,29.85,North,7,0.0,4.0,74,0.00,,,-99.99,,2013-07-07 00:56:00,
2013-07-06 21:02:00,78.0,69.0,29.85,North,7,0.0,4.0,74,0.00,,,-99.99,,2013-07-07 01:02:00,
2013-07-06 21:15:00,78.0,70.0,29.85,North,7,0.0,1.0,76,0.00,,,-99.99,,2013-07-07 01:15:00,
2013-07-06 21:24:00,72.0,68.0,29.87,North,7,0.0,0.0,88,0.00,,,-99.99,,2013-07-07 01:24:00,
2013-07-06 21:25:00,78.0,70.0,29.85,North,7,0.0,1.0,76,0.00,,,-99.99,,2013-07-07 01:25:00,
2013-07-06 21:35:00,78.0,70.0,29.85,North,7,0.0,1.0,76,0.00,,,-99.99,,2013-07-07 01:35:00,
2013-07-06 21:46:00,78.0,70.0,29.85,North,7,0.0,1.0,76,0.00,,,-99.99,,2013-07-07 01:46:00,
2013-07-06 21:55:00,72.0,68.0,29.87,North,7,0.0,0.0,88,0.00,,,-99.99,,2013-07-07 01:55:00,
2013-07-06 22:51:00,71.0,68.0,29.87,North,7,0.0,0.0,89,0.00,,,-99.99,,2013-07-07 02:51:00,
2013-07-06 23:40:00,71.0,68.0,29.87,North,7,0.0,0.0,89,0.00,,,-99.99,,2013-07-07 03:40:00,
2013-07-06 23:50:00,71.0,68.0,29.87,North,7,0.0,0.0,89,0.00,,,-99.99,,2013-07-07 03:50:00,